Flag for U.S.A. Weather past 2 weeks in McAllen, Texas, U.S.A.

Now
80 °F

Clear.


Feels Like: 86 °F
Forecast: 79 / 92 °F
Wind: 6 mph from Southeast

Location: Miller International Airport

Current Time: Sep 2, 2014 at 4:07:25 AM

Latest Report: Sep 2, 2014 at 2:53 AM


Visibility: 10 mi

Pressure: 29.86 "Hg

Humidity: 90%

Dew point: 77 °F

Location of McAllenLocation

Historic Weather in McAllen — Graph

°F

McAllen temperature yesterday

Maximum temperature yesterday: 97 °F (at 3:53 PM)
Minimum temperature yesterday: 78 °F (at 6:53 AM)
Average temperature yesterday: 86 °F

Past Weeks' High & Low Weather Summary

 TemperatureHumidityPressure
High102 °F (Aug 25, 4:53 PM)97% (Aug 30, 1:53 AM)30.05 "Hg (Aug 30, 1:53 AM)
Low74 °F (Aug 29, 5:53 PM)21% (Aug 22, 4:53 PM)29.73 "Hg (Aug 29, 3:53 PM)
Average87 °F68%29.89 "Hg
* Reported Aug 18 2:53 AM — Sep 2 2:53 AM, McAllen, Weather by CustomWeather, © 2014

Note: Actual official high and low records may vary slightly from our data, if they occured in-between our weather recording intervals... More about our weather records

Advertising

McAllen weather history for previous 24 hours

 ConditionsComfort  
Time TempWeatherWind HumidityBarometerVisibility
2:53 AM
Sep 2
80 °FClear.6 mph90%29.86 "Hg10 mi
1:53 AM81 °FClear.6 mph88%29.88 "Hg10 mi
12:53 AM82 °FClear.6 mph85%29.89 "Hg10 mi
11:53 PM
Sep 1
82 °FClear.8 mph85%29.89 "Hg10 mi
10:53 PM83 °FClear.9 mph79%29.88 "Hg10 mi
9:53 PM84 °FClear.10 mph74%29.87 "Hg10 mi
8:53 PM86 °FClear.12 mph70%29.85 "Hg10 mi
7:53 PM89 °FSunny.15 mph61%29.83 "Hg10 mi
6:53 PM92 °FSunny.18 mph54%29.82 "Hg10 mi
5:53 PM95 °FScattered clouds.16 mph49%29.81 "Hg10 mi
4:53 PM95 °FSunny.15 mph49%29.81 "Hg10 mi
3:53 PM97 °FScattered clouds.15 mph45%29.83 "Hg10 mi
2:53 PM94 °FBroken clouds.15 mph51%29.85 "Hg10 mi
1:53 PM94 °FScattered clouds.12 mph52%29.87 "Hg10 mi
12:53 PM93 °FPassing clouds.10 mph54%29.89 "Hg10 mi
11:53 AM90 °FBroken clouds.14 mph63%29.90 "Hg10 mi
10:53 AM87 °FPassing clouds.13 mph69%29.91 "Hg10 mi
10:04 AM84 °FPartly sunny.10 mph79%29.92 "Hg10 mi
9:53 AM84 °FScattered clouds.9 mph80%29.91 "Hg10 mi
8:53 AM81 °FPassing clouds.8 mph91%29.90 "Hg8 mi
7:53 AM79 °FFog.5 mph97%29.89 "Hg6 mi
6:53 AM78 °FClear.5 mph96%29.88 "Hg8 mi
5:53 AM79 °FPassing clouds.5 mph94%29.87 "Hg8 mi
4:53 AM79 °FPartly cloudy.5 mph94%29.87 "Hg9 mi
Weather by CustomWeather, © 2014

See weather overviewHow to use our weather pages